Location: Glendo
(42.5037°N, 105.0248°W)
Time: 04:34:43
(UTC+00:00)

Tiangong - Pass Details

Date: 03 February 2022
Orbit: 386 x 391 km, 41.5° (Epoch: 15 May)

Event Time Altitude Azimuth Distance (km) Brightness Sun altitude
Rises 02:17:52 0° 276° (W) 2,338 6.5 -22.8°
Reaches altitude 10° 02:20:00 10° 271° (W) 1,481 5.1 -23.2°
Enters shadow 02:22:29 39° 239° (WSW) 635 2.5 -23.6°
